H1 CPF 2 NER 2026 2 2 12 033 01 glonass138 H2 1805301 9138 43508 2026 2 2 0 0 0 2026 2 5 23 45 0 900 1 1 0 0 0 1 H9 10 0 61073 0.00000 0 16450924.209 -9160019.430 17235988.863 10 0 61073 900.00000 0 15081063.459 -7372861.637 19230518.354 10 0 61073 1800.00000 0 13737399.723 -5296010.222 20852365.974 10 0 61073 2700.00000 0 12475774.125 -2967945.196 22070097.047 10 0 61073 3600.00000 0 11345017.835 -437817.983 22860087.580 10 0 61073 4500.00000 0 10384932.395 2236337.917 23206979.693 10 0 61073 5400.00000 0 9624665.516 4989768.994 23103980.003 10 0 61073 6300.00000 0 9081549.666 7753448.506 22552995.348 10 0 61073 7200.00000 0 8760451.728 10456708.076 21564602.997 10 0 61073 8100.00000 0 8653660.856 13029946.479 20157855.384 10 0 61073 9000.00000 0 8741319.458 15407304.516 18359922.271 10 0 61073 9900.00000 0 8992379.668 17529195.803 16205576.150 10 0 61073 10800.00000 0 9366045.698 19344588.864 13736529.669 10 0 61073 11700.00000 0 9813642.025 20812945.734 11000636.656 10 0 61073 12600.00000 0 10280829.207 21905736.089 8050971.235 10 0 61073 13500.00000 0 10710074.099 22607463.293 4944802.090 10 0 61073 14400.00000 0 11043270.095 22916158.949 1742481.333 10 0 61073 15300.00000 0 11224396.149 22843324.700 -1493730.438 10 0 61073 16200.00000 0 11202101.210 22413323.371 -4700879.734 10 0 61073 17100.00000 0 10932103.484 21662244.875 -7816552.108 10 0 61073 18000.00000 0 10379301.473 20636294.706 -10780095.505 10 0 61073 18900.00000 0 9519505.817 19389773.278 -13533810.185 10 0 61073 19800.00000 0 8340716.989 17982731.842 -16024081.002 10 0 61073 20700.00000 0 6843893.229 16478404.533 -18202429.018 10 0 61073 21600.00000 0 5043174.832 14940525.571 -20026461.243 10 0 61073 22500.00000 0 2965554.024 13430645.317 -21460699.534 10 0 61073 23400.00000 0 650003.276 12005558.797 -22477272.301 10 0 61073 24300.00000 0 -1853902.174 10714955.133 -23056455.617 10 0 61073 25200.00000 0 -4487810.504 9599386.721 -23187053.530 10 0 61073 26100.00000 0 -7186792.220 8688643.102 -22866610.575 10 0 61073 27000.00000 0 -9881820.282 8000597.145 -22101452.927 10 0 61073 27900.00000 0 -12502428.267 7540570.967 -20906557.926 10 0 61073 28800.00000 0 -14979436.002 7301247.006 -19305255.060 10 0 61073 29700.00000 0 -17247629.476 7263126.581 -17328764.675 10 0 61073 30600.00000 0 -19248283.829 7395515.193 -15015583.775 10 0 61073 31500.00000 0 -20931424.882 7657991.736 -12410731.219 10 0 61073 32400.00000 0 -22257735.689 8002298.383 -9564867.255 10 0 61073 33300.00000 0 -23200029.555 8374570.403 -6533304.799 10 0 61073 34200.00000 0 -23744229.083 8717810.885 -3374931.932 10 0 61073 35100.00000 0 -23889811.617 8974505.245 -151066.809 10 0 61073 36000.00000 0 -23649703.735 9089264.635 3075732.592 10 0 61073 36900.00000 0 -23049630.534 9011386.341 6242880.599 10 0 61073 37800.00000 0 -22126948.156 8697222.962 9288974.278 10 0 61073 38700.00000 0 -20929009.499 8112260.326 12154978.863 10 0 61073 39600.00000 0 -19511132.327 7232816.518 14785365.437 10 0 61073 40500.00000 0 -17934255.327 6047290.315 17129179.337 10 0 61073 41400.00000 0 -16262380.320 4556906.223 19141019.294 10 0 61073 42300.00000 0 -14559907.383 2775924.265 20781909.102 10 0 61073 43200.00000 0 -12888973.736 731304.861 22020045.859 10 0 61073 44100.00000 0 -11306906.802 -1538158.418 22831411.125 10 0 61073 45000.00000 0 -9863896.870 -3983203.479 23200233.864 10 0 61073 45900.00000 0 -8600985.586 -6545906.591 23119296.703 10 0 61073 46800.00000 0 -7548453.376 -9161858.171 22590079.712 10 0 61073 47700.00000 0 -6724672.461 -11762618.839 21622738.775 10 0 61073 48600.00000 0 -6135472.935 -14278355.381 20235918.386 10 0 61073 49500.00000 0 -5774048.211 -16640548.593 18456401.649 10 0 61073 50400.00000 0 -5621403.884 -18784661.511 16318603.162 10 0 61073 51300.00000 0 -5647331.368 -20652657.738 13863913.406 10 0 61073 52200.00000 0 -5811865.766 -22195265.264 11139906.108 10 0 61073 53100.00000 0 -6067166.902 -23373891.200 8199422.909 10 0 61073 54000.00000 0 -6359744.404 -24162107.002 5099552.307 10 0 61073 54900.00000 0 -6632932.813 -24546641.368 1900522.195 10 0 61073 55800.00000 0 -6829511.713 -24527838.446 -1335472.496 10 0 61073 56700.00000 0 -6894359.277 -24119561.429 -4545483.969 10 0 61073 57600.00000 0 -6777025.795 -23348545.054 -7667043.261 10 0 61073 58500.00000 0 -6434116.846 -22253223.970 -10639384.575 10 0 61073 59400.00000 0 -5831383.636 -20882086.301 -13404637.377 10 0 61073 60300.00000 0 -4945430.379 -19291621.988 -15908961.988 10 0 61073 61200.00000 0 -3764964.885 -17543952.807 -18103605.604 10 0 61073 62100.00000 0 -2291537.985 -15704244.431 -19945857.428 10 0 61073 63000.00000 0 -539739.246 -13838010.013 -21399883.849 10 0 61073 63900.00000 0 1463160.461 -12008419.215 -22437427.166 10 0 61073 64800.00000 0 3678105.417 -10273725.994 -23038354.352 10 0 61073 65700.00000 0 6055653.685 -8684923.156 -23191045.441 10 0 61073 66600.00000 0 8537819.838 -7283721.755 -22892614.412 10 0 61073 67500.00000 0 11060285.071 -6100939.360 -22148958.821 10 0 61073 68400.00000 0 13554882.680 -5155363.735 -20974637.734 10 0 61073 69300.00000 0 15952255.325 -4453138.260 -19392580.870 10 0 61073 70200.00000 0 18184573.474 -3987693.311 -17433635.083 10 0 61073 71100.00000 0 20188201.890 -3740224.798 -15135957.364 10 0 61073 72000.00000 0 21906203.307 -3680698.036 -12544266.568 10 0 61073 72900.00000 0 23290575.280 -3769333.056 -9708968.685 10 0 61073 73800.00000 0 24304127.512 -3958507.302 -6685172.941 10 0 61073 74700.00000 0 24921921.956 -4194994.218 -3531618.147 10 0 61073 75600.00000 0 25132216.474 -4422442.213 -309530.406 10 0 61073 76500.00000 0 24936873.573 -4583988.614 2918565.443 10 0 61073 77400.00000 0 24351218.160 -4624897.673 6090057.391 10 0 61073 78300.00000 0 23403351.327 -4495110.967 9143457.275 10 0 61073 79200.00000 0 22132949.746 -4151602.377 12019587.930 10 0 61073 80100.00000 0 20589601.642 -3560438.253 14662723.677 10 0 61073 81000.00000 0 18830749.378 -2698455.905 17021662.580 10 0 61073 81900.00000 0 16919324.773 -1554489.551 19050710.383 10 0 61073 82800.00000 0 14921175.736 -130091.855 20710557.843 10 0 61073 83700.00000 0 12902391.108 1560279.909 21969035.358 10 0 61073 84600.00000 0 10926634.483 3489621.866 22801731.155 10 0 61073 85500.00000 0 9052597.219 5619272.052 23192461.721 10 0 61074 0.00000 0 7331675.821 7900293.745 23133585.949 10 0 61074 900.00000 0 5805968.553 10275298.984 22626156.937 10 0 61074 1800.00000 0 4506676.107 12680635.104 21679908.538 10 0 61074 2700.00000 0 3452969.205 15048849.147 20313076.267 10 0 61074 3600.00000 0 2651372.237 17311326.199 18552055.164 10 0 61074 4500.00000 0 2095687.472 19400994.266 16430900.206 10 0 61074 5400.00000 0 1767463.112 21254983.710 13990677.713 10 0 61074 6300.00000 0 1636985.611 22817130.765 11278679.085 10 0 61074 7200.00000 0 1664754.675 24040220.540 8347511.074 10 0 61074 8100.00000 0 1803378.891 24887875.301 5254079.432 10 0 61074 9000.00000 0 1999811.901 25336008.205 2058485.160 10 0 61074 9900.00000 0 2197834.318 25373780.602 -1177145.230 10 0 61074 10800.00000 0 2340675.743 25004021.743 -4389872.388 10 0 61074 11700.00000 0 2373664.936 24243092.408 -7517175.547 10 0 61074 12600.00000 0 2246794.669 23120197.501 -10498177.770 10 0 61074 13500.00000 0 1917091.185 21676176.176 -13274840.158 10 0 61074 14400.00000 0 1350686.379 19961820.267 -15793100.738 10 0 61074 15300.00000 0 524503.442 18035791.980 -18003934.865 10 0 61074 16200.00000 0 -572516.824 15962228.748 -19864315.752 10 0 61074 17100.00000 0 -1938702.149 13808136.344 -21338055.926 10 0 61074 18000.00000 0 -3559478.696 11640680.192 -22396512.977 10 0 61074 18900.00000 0 -5407752.838 9524488.780 -23019145.934 10 0 61074 19800.00000 0 -7444829.546 7519082.260 -23193911.703 10 0 61074 20700.00000 0 -9621829.401 5676533.742 -22917494.264 10 0 61074 21600.00000 0 -11881545.241 4039460.543 -22195362.717 10 0 61074 22500.00000 0 -14160661.018 2639428.528 -21041657.578 10 0 61074 23400.00000 0 -16392240.246 1495835.007 -19478908.069 10 0 61074 24300.00000 0 -18508380.171 615315.422 -17537586.372 10 0 61074 25200.00000 0 -20442920.955 -8303.168 -15255507.909 10 0 61074 26100.00000 0 -22134096.819 -393501.702 -12677089.649 10 0 61074 27000.00000 0 -23527018.673 -570044.776 -9852481.206 10 0 61074 27900.00000 0 -24575884.812 -577477.253 -6836585.836 10 0 61074 28800.00000 0 -25245827.712 -463206.721 -3687990.688 10 0 61074 29700.00000 0 -25514320.286 -280254.042 -467827.343 10 0 61074 30600.00000 0 -25372083.451 -84767.955 2761415.040 10 0 61074 31500.00000 0 -24823457.789 66590.546 5937100.711 10 0 61074 32400.00000 0 -23886224.514 119283.141 8997658.935 10 0 61074 33300.00000 0 -22590883.946 23436.924 11883772.815 10 0 61074 34200.00000 0 -20979422.231 -263812.423 14539522.555 10 0 61074 35100.00000 0 -19103618.230 -776275.825 16913461.499 10 0 61074 36000.00000 0 -17022961.334 -1537050.512 18959604.784 10 0 61074 36900.00000 0 -14802266.912 -2557314.243 20638312.257 10 0 61074 37800.00000 0 -12509088.254 -3835625.077 21917049.426 10 0 61074 38700.00000 0 -10211031.985 -5357756.774 22771012.611 10 0 61074 39600.00000 0 -7973087.721 -7097077.744 23183606.858 10 0 61074 40500.00000 0 -5855081.870 -9015459.068 23146767.913 10 0 61074 41400.00000 0 -3909360.340 -11064675.287 22661122.177 10 0 61074 42300.00000 0 -2178795.440 -13188241.306 21735981.398 10 0 61074 43200.00000 0 -695199.017 -15323610.601 20389171.682 10 0 61074 44100.00000 0 521792.846 -17404644.792 18646699.270 10 0 61074 45000.00000 0 1465317.490 -19364253.002 16542258.489 10 0 61074 45900.00000 0 2141341.051 -21137091.931 14116590.194 10 0 61074 46800.00000 0 2568169.364 -22662214.480 11416701.902 10 0 61074 47700.00000 0 2775434.920 -23885556.265 8494963.688 10 0 61074 48600.00000 0 2802602.574 -24762155.609 5408096.572 10 0 61074 49500.00000 0 2697057.053 -25258013.191 2216072.505 10 0 61074 50400.00000 0 2511853.335 -25351512.268 -1019052.705 10 0 61074 51300.00000 0 2303225.549 -25034338.669 -4234350.581 10 0 61074 52200.00000 0 2127960.625 -24311860.683 -7367251.091 10 0 61074 53100.00000 0 2040749.018 -23202951.863 -10356768.801 10 0 61074 54000.00000 0 2091626.003 -21739263.392 -13144699.184 10 0 61074 54900.00000 0 2323613.338 -19963976.132 -15676760.760 10 0 61074 55800.00000 0 2770662.615 -17930084.638 -17903659.809 10 0 61074 56700.00000 0 3455988.696 -15698285.310 -19782056.210 10 0 61074 57600.00000 0 4390864.970 -13334557.561 -21275411.081 10 0 61074 58500.00000 0 5573932.391 -10907539.788 -22354699.466 10 0 61074 59400.00000 0 6991052.342 -8485810.335 -22998974.257 10 0 61074 60300.00000 0 8615710.223 -6135187.341 -23195770.629 10 0 61074 61200.00000 0 10409953.319 -3916160.286 -22941343.535 10 0 61074 62100.00000 0 12325823.901 -1881560.112 -22240734.176 10 0 61074 63000.00000 0 14307227.706 -74564.423 -21107664.652 10 0 61074 63900.00000 0 16292159.566 1472879.993 -19564263.416 10 0 61074 64800.00000 0 18215193.067 2741152.915 -17640627.297 10 0 61074 65700.00000 0 20010130.035 3723530.630 -15374229.013 10 0 61074 66600.00000 0 21612698.965 4426208.114 -12809182.087 10 0 61074 67500.00000 0 22963189.528 4867774.573 -9995377.724 10 0 61074 68400.00000 0 24008913.024 5078166.369 -6987510.740 10 0 61074 69300.00000 0 24706385.968 5097143.231 -3844013.766 10 0 61074 70200.00000 0 25023145.705 4972353.585 -625920.696 10 0 61074 71100.00000 0 24939122.439 4757071.924 2604318.356 10 0 61074 72000.00000 0 24447510.676 4507704.700 5784047.351 10 0 61074 72900.00000 0 23555104.130 4281170.743 8851616.389 10 0 61074 73800.00000 0 22282080.529 4132267.131 11747572.127 10 0 61074 74700.00000 0 20661245.700 4111131.853 14415803.722 10 0 61074 75600.00000 0 18736768.746 4260910.189 16804622.602 10 0 61074 76500.00000 0 16562461.049 4615723.073 18867755.811 10 0 61074 77400.00000 0 14199670.631 5199022.857 20565234.469 10 0 61074 78300.00000 0 11714878.974 6022405.705 21864161.033 10 0 61074 79200.00000 0 9177099.461 7084930.809 22739341.388 10 0 61074 80100.00000 0 6655184.551 8372975.641 23173770.206 10 0 61074 81000.00000 0 4215152.355 9860634.288 23158960.730 10 0 61074 81900.00000 0 1917642.387 11510643.557 22695112.796 10 0 61074 82800.00000 0 -184395.046 13275799.674 21791115.671 10 0 61074 83700.00000 0 -2047680.874 15100808.074 20464385.188 10 0 61074 84600.00000 0 -3640179.202 16924490.731 18740537.443 10 0 61074 85500.00000 0 -4942194.329 18682260.243 16652904.345 10 0 61075 0.00000 0 -5946947.475 20308758.356 14241899.384 10 0 61075 900.00000 0 -6660609.841 21740550.148 11554243.351 10 0 61075 1800.00000 0 -7101789.482 22918759.188 8642067.237 10 0 61075 2700.00000 0 -7300495.406 23791535.887 5561904.574 10 0 61075 3600.00000 0 -7296621.208 24316252.583 2373595.421 10 0 61075 4500.00000 0 -7138013.063 24461332.957 -860878.001 10 0 61075 5400.00000 0 -6878203.995 24207637.448 -4078600.961 10 0 61075 6300.00000 0 -6573910.971 23549345.008 -7216956.965 10 0 61075 7200.00000 0 -6282401.668 22494292.735 -10214854.767 10 0 61075 8100.00000 0 -6058843.596 21063757.963 -13013926.725 10 0 61075 9000.00000 0 -5953749.096 19291691.072 -15559674.133 10 0 61075 9900.00000 0 -6010625.719 17223430.684 -17802536.246 10 0 61075 10800.00000 0 -6263932.721 14913954.916 -19698861.405 10 0 61075 11700.00000 0 -6737431.229 12425742.014 -21211760.868 10 0 61075 12600.00000 0 -7442998.775 9826330.117 -22311828.433 10 0 61075 13500.00000 0 -8379958.995 7185678.495 -22977711.884 10 0 61075 14400.00000 0 -9534955.335 4573440.625 -23196525.415 10 0 61075 15300.00000 0 -10882374.438 2056263.010 -22964095.374 10 0 61075 16200.00000 0 -12385301.611 -304777.865 -22285035.092 10 0 61075 17100.00000 0 -13996968.315 -2456494.125 -21172647.889 10 0 61075 18000.00000 0 -15662630.857 -4355564.872 -19648660.640 10 0 61075 18900.00000 0 -17321801.365 -5970093.047 -17742793.590 10 0 61075 19800.00000 0 -18910737.377 -7280677.421 -15492175.155 10 0 61075 20700.00000 0 -20365085.475 -8280956.695 -12940613.470 10 0 61075 21600.00000 0 -21622568.045 -8977604.956 -10137739.159 10 0 61075 22500.00000 0 -22625600.429 -9389780.756 -7138036.245 10 0 61075 23400.00000 0 -23323728.716 -9548054.938 -3999780.357 10 0 61075 24300.00000 0 -23675786.056 -9492864.138 -783905.121 10 0 61075 25200.00000 0 -23651677.211 -9272556.715 2447181.036 10 0 61075 26100.00000 0 -23233716.792 -8941114.712 5630804.495 10 0 61075 27000.00000 0 -22417465.330 -8555648.882 8705238.939 10 0 61075 27900.00000 0 -21212028.453 -8173773.012 11610897.327 10 0 61075 28800.00000 0 -19639806.799 -7850968.566 14291480.473 10 0 61075 29700.00000 0 -17735707.184 -7638050.727 16695060.467 10 0 61075 30600.00000 0 -15545847.787 -7578842.442 18775078.627 10 0 61075 31500.00000 0 -13125810.946 -7708154.102 20491239.428 10 0 61075 32400.00000 0 -10538515.677 -8050153.638 21810284.003 10 0 61075 33300.00000 0 -7851797.448 -8617195.463 22706629.119 10 0 61075 34200.00000 0 -5135794.661 -9409157.630 23162859.953 10 0 61075 35100.00000 0 -2460249.033 -10413315.556 23170067.709 10 0 61075 36000.00000 0 108169.482 -11604758.526 22728025.697 10 0 61075 36900.00000 0 2508403.521 -12947332.715 21845200.381 10 0 61075 37800.00000 0 4687310.679 -14395072.724 20538596.646 10 0 61075 38700.00000 0 6601632.773 -15894063.249 18833439.464 10 0 61075 39600.00000 0 8219550.890 -17384654.414 16762697.035 10 0 61075 40500.00000 0 9521761.957 -18803939.267 14366453.457 10 0 61075 41400.00000 0 10502032.249 -20088390.525 11691141.810 10 0 61075 42300.00000 0 11167204.815 -21176546.424 8788651.475 10 0 61075 43200.00000 0 11536660.600 -22011632.875 5715326.153 10 0 61075 44100.00000 0 11641256.006 -22544011.197 2530871.493 10 0 61075 45000.00000 0 11521781.793 -22733347.489 -702806.521 10 0 61075 45900.00000 0 11227008.690 -22550411.042 -3922809.596 10 0 61075 46800.00000 0 10811402.848 -21978424.527 -7066477.481 10 0 61075 47700.00000 0 10332608.511 -21013907.586 -10072615.789 10 0 61075 48600.00000 0 9848805.462 -19666976.803 -12882696.360 10 0 61075 49500.00000 0 9416054.199 -17961088.196 -15442005.772 10 0 61075 50400.00000 0 9085742.432 -15932232.064 -17700718.617 10 0 61075 51300.00000 0 8902242.092 -13627613.368 -19614873.878 10 0 61075 52200.00000 0 8900876.962 -11103872.583 -21147234.886 10 0 61075 53100.00000 0 9106287.679 -8424921.430 -22268015.817 10 0 61075 54000.00000 0 9531263.743 -5659484.032 -22955460.628 10 0 61075 54900.00000 0 10176092.199 -2878446.213 -23196263.426 10 0 61075 55800.00000 0 11028450.618 -152123.580 -22985822.456 10 0 61075 56700.00000 0 12063848.856 2452437.922 -22328323.324 10 0 61075 57600.00000 0 13246600.884 4874016.935 -21236650.336 10 0 61075 58500.00000 0 14531285.536 7059521.309 -19732128.225 10 0 61075 59400.00000 0 15864634.504 8965947.448 -17844099.742 10 0 61075 60300.00000 0 17187767.903 10561914.010 -15609347.756 10 0 61075 61200.00000 0 18438683.171 11828707.564 -13071373.426 10 0 61075 62100.00000 0 19554892.455 12760798.325 -10279544.844 10 0 61075 63000.00000 0 20476097.451 13365806.400 -7288132.946 10 0 61075 63900.00000 0 21146789.159 13663921.928 -4155253.759 10 0 61075 64800.00000 0 21518663.250 13686805.436 -941737.794 10 0 61075 65700.00000 0 21552749.585 13476016.373 2290051.230 10 0 61075 66600.00000 0 21221166.522 13081037.466 5477425.202 10 0 61075 67500.00000 0 20508426.472 12556979.259 8558584.458 10 0 61075 68400.00000 0 19412238.031 11962062.344 11473811.227 10 0 61075 69300.00000 0 17943771.081 11354983.802 14166620.784 10 0 61075 70200.00000 0 16127373.680 10792278.879 16584848.486 10 0 61075 71100.00000 0 13999752.235 10325788.799 18681652.293 10 0 61075 72000.00000 0 11608648.655 10000340.905 20416412.154 10 0 61075 72900.00000 0 9011068.844 9851738.226 21755509.706 10 0 61075 73800.00000 0 6271135.138 9905142.567 22672974.104 10 0 61075 74700.00000 0 3457650.749 10173918.791 23150982.182 10 0 61075 75600.00000 0 641475.871 10658988.852 23180203.808 10 0 61075 76500.00000 0 -2107177.194 11348723.072 22759986.020 10 0 61075 77400.00000 0 -4721419.131 12219373.957 21898372.193 10 0 61075 78300.00000 0 -7140219.317 13236035.412 20611955.445 10 0 61075 79200.00000 0 -9310698.050 14354088.427 18925568.261 10 0 61075 80100.00000 0 -11190080.878 15521073.895 16871813.295 10 0 61075 81000.00000 0 -12747234.358 16678915.255 14490443.226 10 0 61075 81900.00000 0 -13963719.533 17766398.651 11827600.423 10 0 61075 82800.00000 0 -14834319.272 18721806.983 8934930.084 10 0 61075 83700.00000 0 -15367017.383 19485597.273 5868583.187 10 0 61075 84600.00000 0 -15582430.389 20003008.280 2688128.033 10 0 61075 85500.00000 0 -15512715.868 20226487.713 -544608.539 10 0 61076 0.00000 0 -15200003.592 20117835.537 -3766747.257 10 0 61076 900.00000 0 -14694415.832 19649971.376 -6915587.468 10 0 61076 1800.00000 0 -14051761.570 18808250.041 -9929833.994 10 0 61076 2700.00000 0 -13331002.329 17591267.903 -12750800.624 10 0 61076 3600.00000 0 -12591598.207 16011124.647 -15323561.471 10 0 61076 4500.00000 0 -11890847.262 14093128.095 -17598028.454 10 0 61076 5400.00000 0 -11281331.853 11874953.467 -19529932.908 10 0 61076 6300.00000 0 -10808580.782 9405291.610 -21081691.648 10 0 61076 7200.00000 0 -10509046.737 6742042.395 -22223140.338 10 0 61076 8100.00000 0 -10408484.897 3950128.611 -22932119.920 10 0 61076 9000.00000 0 -10520801.321 1099021.565 -23194904.911 10 0 61076 9900.00000 0 -10847419.625 -1739918.444 -23006465.629 10 0 61076 10800.00000 0 -11377192.369 -4496176.062 -22370559.772 10 0 61076 11700.00000 0 -12086860.474 -7102775.672 -21299652.086 10 0 61076 12600.00000 0 -12942040.779 -9498825.307 -19814664.234 10 0 61076 13500.00000 0 -13898699.598 -11631804.532 -17944560.199 10 0 61076 14400.00000 0 -14905049.686 -13459502.043 -15725775.683 10 0 61076 15300.00000 0 -15903790.193 -14951523.520 -13201502.986 10 0 61076 16200.00000 0 -16834594.887 -16090308.350 -10420845.574 10 0 61076 17100.00000 0 -17636743.465 -16871614.526 -7437859.052 10 0 61076 18000.00000 0 -18251784.883 -17304453.272 -4310497.495 10 0 61076 18900.00000 0 -18626120.373 -17410478.015 -1099485.880 10 0 61076 19800.00000 0 -18713397.304 -17222855.175 2132859.262 10 0 61076 20700.00000 0 -18476613.110 -16784665.783 5323837.871 10 0 61076 21600.00000 0 -17889840.800 -16146906.493 8411579.520 10 0 61076 22500.00000 0 -16939503.552 -15366175.074 11336238.321 10 0 61076 23400.00000 0 -15625144.785 -14502138.370 14041146.605 10 0 61076 24300.00000 0 -13959661.281 -13614889.510 16473905.497 10 0 61076 25200.00000 0 -11968989.162 -12762305.389 18587391.951 10 0 61076 26100.00000 0 -9691255.270 -11997515.125 20340663.483 10 0 61076 27000.00000 0 -7175428.449 -11366585.266 21699744.028 10 0 61076 27900.00000 0 -4479525.747 -10906518.299 22638276.550 10 0 61076 28800.00000 0 -1668446.791 -10643647.886 23138030.549 10 0 61076 29700.00000 0 1188475.270 -10592497.741 23189255.175 10 0 61076 30600.00000 0 4020106.269 -10755151.893 22790871.383 10 0 61076 31500.00000 0 6756219.335 -11121162.972 21950499.275 10 0 61076 32400.00000 0 9330168.188 -11668002.911 20684319.647 10 0 61076 33300.00000 0 11681415.763 -12362038.007 19016771.593 10 0 61076 34200.00000 0 13757814.076 -13159988.430 16980090.979 10 0 61076 35100.00000 0 15517541.212 -14010811.947 14613697.478 10 0 61076 36000.00000 0 16930615.091 -14857933.626 11963440.818 10 0 61076 36900.00000 0 17979920.903 -15641728.385 9080719.745 10 0 61076 37800.00000 0 18661709.188 -16302152.142 6021489.936 10 0 61076 38700.00000 0 18985543.483 -16781410.522 2845179.507 10 0 61076 39600.00000 0 18973699.612 -17026551.909 -386466.871 10 0 61076 40500.00000 0 18660041.855 -16991874.357 -3610592.617 10 0 61076 41400.00000 0 18088423.539 -16641043.295 -6764458.590 10 0 61076 42300.00000 0 17310679.903 -15948829.010 -9786672.369 10 0 61076 43200.00000 0 16384298.651 -14902388.779 -12618392.488 10 0 61076 44100.00000 0 15369867.385 -13502037.892 -15204483.151 10 0 61076 45000.00000 0 14328406.730 -11761475.485 -17494595.920 10 0 61076 45900.00000 0 13318702.723 -9707454.360 -19444156.500 10 0 61076 46800.00000 0 12394751.991 -7378907.579 -21015236.903 10 0 61076 47700.00000 0 11603428.194 -4825567.707 -22177295.656 10 0 61076 48600.00000 0 10982468.583 -2106135.997 -22907771.690 10 0 61076 49500.00000 0 10558865.636 713922.305 -23192520.555 10 0 61076 50400.00000 0 10347731.369 3564864.656 -23026084.880 10 0 61076 51300.00000 0 10351681.655 6375336.448 -22411794.312 10 0 61076 52200.00000 0 10560765.802 9075103.962 -21361693.542 10 0 61076 53100.00000 0 10952943.505 11597741.578 -19896300.328 10 0 61076 54000.00000 0 11495088.183 13883161.913 -18044198.720 10 0 61076 54900.00000 0 12144473.520 15879884.292 -15841475.786 10 0 61076 55800.00000 0 12850679.714 17546947.988 -13331013.185 10 0 61076 56700.00000 0 13557838.331 18855391.708 -10561647.670 10 0 61076 57600.00000 0 14207120.487 19789239.003 -7587217.133 10 0 61076 58500.00000 0 14739362.916 20345950.011 -4465511.059 10 0 61076 59400.00000 0 15097720.837 20536322.337 -1257146.041 10 0 61076 60300.00000 0 15230235.498 20383846.940 1975611.565 10 0 61076 61200.00000 0 15092208.039 19923547.608 5170052.769 10 0 61076 62100.00000 0 14648279.588 19200354.190 8264239.368 10 0 61076 63000.00000 0 13874129.998 18267078.992 11198200.228 10 0 61076 63900.00000 0 12757723.658 17182082.121 13915087.424 10 0 61076 64800.00000 0 11300049.892 16006724.253 16362270.335 10 0 61076 65700.00000 0 9515326.475 14802713.773 18492347.149 10 0 61076 66600.00000 0 7430657.134 13629459.325 20264054.944 10 0 61076 67500.00000 0 5085156.436 12541538.238 21643061.653 10 0 61076 68400.00000 0 2528577.363 11586386.182 22602625.441 10 0 61076 69300.00000 0 -180502.709 10802304.092 23124109.505 10 0 61076 70200.00000 0 -2976863.825 10216865.094 23197342.893 10 0 61076 71100.00000 0 -5791104.221 9845787.646 22820820.623 10 0 61076 72000.00000 0 -8552279.599 9692321.811 22001739.150 10 0 61076 72900.00000 0 -11190613.049 9747174.450 20755866.026 10 0 61076 73800.00000 0 -13640164.549 9988976.810 19107245.489 10 0 61076 74700.00000 0 -15841350.246 10385275.526 17087744.620 10 0 61076 75600.00000 0 -17743207.515 10894006.139 14736447.645 10 0 61076 76500.00000 0 -19305311.881 11465387.957 12098908.867 10 0 61076 77400.00000 0 -20499265.863 12044161.105 9226277.562 10 0 61076 78300.00000 0 -21309697.344 12572071.846 6174310.962 10 0 61076 79200.00000 0 -21734725.298 12990501.322 3002293.851 10 0 61076 80100.00000 0 -21785872.965 13243126.231 -228114.365 10 0 61076 81000.00000 0 -21487431.825 13278498.167 -3454082.485 10 0 61076 81900.00000 0 -20875303.024 13052431.313 -6612836.306 10 0 61076 82800.00000 0 -19995365.194 12530095.996 -9642888.543 10 0 61076 83700.00000 0 -18901437.887 11687727.901 -12485244.941 10 0 61076 84600.00000 0 -17652927.148 10513878.967 -15084562.026 10 0 61076 85500.00000 0 -16312253.372 9010155.507 -17390232.929 99